Regional Weather Roundup
Issued by NWS

Home | Current Version | Previous Version | Text Only | Print | Product List | Glossary On
Versions: 1 2 3 4 5 6 7 8 9 10 11 12 13 14 15 16 17 18 19 20 21 22 23 24 25 26 27 28 29 30 31 32 33 34 35 36 37 38 39 40 41 42 43 44 45 46 47 48 49 50
000
ASUS43 KMPX 012010
RWRMN
WEATHER ROUNDUP FOR MINNESOTA
NATIONAL WEATHER SERVICE TWIN CITIES/CHANHASSEN MN
300 PM CDT SAT OCT 01 2016


NOTE: "FAIR" INDICATES FEW OR NO CLOUDS BELOW 12,000 FEET WITH NO
SIGNIFICANT WEATHER AND/OR OBSTRUCTIONS TO VISIBILITY. N/A MEANS
CURRENT SKY AND/OR WEATHER CONDITIONS ARE NOT AVAILABLE.

MNZ060>063-068>070-012100-
   Twin Cities Metro

CITY           SKY/WX    TMP DP  RH WIND       PRES   REMARKS
TWIN CITIES    SUNNY     71  55  56 E7        30.09F
ST PAUL        SUNNY     72  55  55 E7        30.09F
CRYSTAL        SUNNY     70  53  54 VRB6      30.08F
BLAINE         MOSUNNY   72  57  60 N5        30.09F
LAKEVILLE      SUNNY     72  55  56 N9G16     30.08F
EDEN PRAIRIE   SUNNY     72  55  55 NE8       30.08F
LAKEVILLE      SUNNY     72  55  56 N9G16     30.08F
SOUTH ST PAUL  SUNNY     72  53  51 NE6       30.08F
LAKE ELMO      FAIR      72  55  56 NE10      30.09F
$$
MNZ001>005-007-008-013>017-022>024-027-028-012100-
   Northwest Minnesota

CITY           SKY/WX    TMP DP  RH WIND       PRES   REMARKS
BEMIDJI        SUNNY     66  53  61 SE3       30.13F
HALLOCK        CLOUDY    70  52  52 S9        30.09S
ROSEAU         MOSUNNY   66  57  72 SE6       30.13F
WARROAD        MOSUNNY   59  55  88 NE9       30.15S
THIEF RVR FALL MOSUNNY   68  53  58 E12       30.12F
CROOKSTON      CLOUDY    70  54  56 SE10      30.10S
FOSSTON        CLOUDY    73  54  49 SE7       30.12F
DETROIT LAKES  CLOUDY    68  52  56 SE8       30.12F
MOORHEAD       SUNNY     72  54  53 SE7       30.09F
PARK RAPIDS    SUNNY     70  50  49 VRB7      30.12F
MAHNOMEN       FAIR      69  52  54 E5        30.11F
$$
MNZ006-009>011-018-025>026-012100-
   North Central Minnesota

CITY           SKY/WX    TMP DP  RH WIND       PRES   REMARKS
BAUDETTE       CLOUDY    64  52  64 CALM      30.15F
FLAG ISLAND    PTSUNNY   57  52  82 CALM      30.15S
INTL FALLS     CLOUDY    67  49  52 NE5       30.15F
WASKISH        PTSUNNY   66  55  68 NW3       30.14F
BIG FORK       CLOUDY    70  52  52 E6        30.14F
GRAND RAPIDS   MOSUNNY   65  54  67 VRB3      30.17F
CRANE LAKE     SUNNY     70  50  49 CALM      30.16F
ORR            SUNNY     70  46  43 CALM      30.13S
COOK           SUNNY     70  50  49 CALM      30.15F
WALKER         FAIR      59  51  76 E3        30.14F
$$
MNZ012-019>021-037-012100-
   Northeast Minnesota

CITY           SKY/WX    TMP DP  RH WIND       PRES   REMARKS
DULUTH         MOSUNNY   66  51  58 E10       30.15F
ELY            SUNNY     70  45  40 CALM      30.15F
HIBBING        SUNNY     68  48  48 E6        30.15F
EVELETH        SUNNY     70  43  36 SE7       30.16F
DULUTH HARBOR  CLOUDY    59  55  88 NE9       30.16F
TWO HARBORS    SUNNY     66  59  77 E9        30.14F
SILVER BAY     SUNNY     64  55  72 E8        30.15F
GRAND MARAIS     N/A     62  57  83 E6        30.15F
G MARAIS ARPRT SUNNY     64  48  55 SE6       30.18F
$$
MNZ029>031-032-039>041-046>048-054>057-064-012100-
   West Central Minnesota

CITY           SKY/WX    TMP DP  RH WIND       PRES   REMARKS
FERGUS FALLS   MOSUNNY   72  54  53 SE9       30.11F
MORRIS         SUNNY     73  52  46 E7        30.08F
ALEXANDRIA     SUNNY     70  53  54 E8        30.12F
ELBOW LAKE     FAIR      69  52  54 SE8G16    30.10F
WADENA         SUNNY     68  52  56 E9        30.12S
GLENWOOD       SUNNY     72  54  53 E9        30.11F
BENSON         SUNNY     73  52  46 SE7       30.09F
ORTONVILLE     SUNNY     72  54  53 SE8       30.08F
MADISON        SUNNY     73  55  53 E5        30.08F
WILLMAR        FAIR      72  55  56 NE6       30.10F
$$
MNZ033>034-036-042>043-049>051-058-059-012100-
   Central Minnesota

CITY           SKY/WX    TMP DP  RH WIND       PRES   REMARKS
ST CLOUD       SUNNY     70  55  59 VRB6      30.11F
SAUK CENTRE    FAIR      69  54  58 NE5       30.11F
PAYNESVILLE    SUNNY     71  54  54 E10       30.11S
AITKIN         SUNNY     72  52  49 NE3       30.12F
PINE RIVER     SUNNY     70  54  56 SE9       30.15F
BRAINERD       SUNNY     69  54  58 SE5       30.13F
STAPLES        SUNNY     70  50  49 SE3       30.12F
LONG PRAIRIE   FAIR      68  52  56 NE6       30.12F
LITTLE FALLS   SUNNY     70  54  56 NE6       30.11F
LITCHFIELD     SUNNY     72  57  60 E8        30.11S HAZE
BUFFALO        SUNNY     69  54  58 N5        30.11F
MAPLE LAKE     SUNNY     71  57  62 E6        30.11F
HUTCHINSON     CLOUDY    71  56  59 NE6       30.11S
$$
MNZ037-044-045-052-053-012100-
   East Central Minnesota

CITY           SKY/WX    TMP DP  RH WIND       PRES   REMARKS
PRINCETON      SUNNY     72  55  56 NE6       30.11F
MORA           SUNNY     70  52  52 NE5       30.14S
CAMBRIDGE      SUNNY     70  55  60 N3        30.10S
MOOSE LAKE     SUNNY     68  48  49 NE5       30.12F
HINCKLEY       FAIR      72  52  49 E8        30.11F
CLOQUET        SUNNY     64  48  55 E8        30.15F
MCGREGOR       SUNNY     72  50  46 CALM      30.14S
$$
MNZ071>073-080-081-089-090-097-098-012100-
   Southwest Minnesota

CITY           SKY/WX    TMP DP  RH WIND       PRES   REMARKS
MONTEVIDEO     SUNNY     77  54  44 S5        30.10F
GRANITE FALLS  SUNNY     75  54  47 E5        30.09F
CANBY          SUNNY     73  54  51 E7        30.09F
MARSHALL       MOSUNNY   72  53  51 VRB3      30.08F
REDWOOD FALLS  SUNNY     74  51  44 VRB5      30.07F
OLIVIA         SUNNY     73  54  49 SE6       30.08F
PIPESTONE      PTSUNNY   70  54  56 S7        30.09F
WINDOM         MOSUNNY   72  54  53 E6        30.08F
WORTHINGTON    PTSUNNY   70  54  56 VRB7      30.09F
JACKSON        CLOUDY    70  52  52 E9        30.09S
TRACY          SUNNY     73  55  52 NE8       30.08F
SLAYTON        MOSUNNY   72  52  49 NE7       30.09F
$$
MNZ065>067-074>077-082>085-091>093-012100-
   South Central Minnesota

CITY           SKY/WX    TMP DP  RH WIND       PRES   REMARKS
MANKATO        MOSUNNY   71  54  54 NE13      30.07F
NEW ULM        MOSUNNY   72  54  53 NE5       30.08S
ST JAMES       MOSUNNY   73  54  49 N7        30.08F
FAIRMONT       CLOUDY    71  55  56 NE8       30.07F
FARIBAULT      SUNNY     73  54  49 NE9       30.08F
OWATONNA       SUNNY     73  48  40 NE13      30.07F
WASECA         MOSUNNY   72  54  53 NE10G16   30.08F
ALBERT LEA     MOSUNNY   72  54  53 NE9       30.06F
$$
MNZ078>079-086>088-094>096-012100-
   Southeast Minnesota

CITY           SKY/WX    TMP DP  RH WIND       PRES   REMARKS
ROCHESTER      MOSUNNY   70  55  59 NE13      30.07F
RED WING       SUNNY     72  45  37 NE5       30.06F
STANTON        SUNNY     74  48  38 E8        30.06F
DODGE CENTER   SUNNY     73  50  43 E8G16     30.07F
WINONA         MOSUNNY   73  54  49 E3        30.06S
AUSTIN         PTSUNNY   70  55  60 E8        30.06F
PRESTON        PTSUNNY   64  54  69 E5        30.08F
$$
ABBREVIATIONS USED IN REMARKS
   TC - TEMPERATURES IN CELSIUS
  WCI - WIND CHILL INDEX
   HX - HEAT INDEX
  VSB - VISIBILITY
$$



USA.gov is the U.S. government's official web portal to all federal, state and local government web resources and services.